Theta_e
334 329 332 330 333 332 324 320 306 310 307 301 300 302 299 307 306 305 305 307 305 308 308 310 310 308 305 304 304 306 307 303 306 299 300 318 333 333 336 338 338 341 340 344 345 350 348 345 347 350 351 351 351 351 351 351 351 351 351 350 350 350 350 349 349 349 348 348 348 347 347 346 345 345 344 344 345 345 344 344 344 343 344 345 345 345 346 345 346 346 347 348 349 351 349 348 347
328 328 328 331 329 327 317 320 308 304 306 300 299 303 300 305 306 303 303 304 305 307 308 309 310 310 310 309 309 308 308 310 310 310 315 330 323 329 335 337 337 339 341 341 344 345 350 350 345 348 350 352 351 351 351 351 351 351 350 350 349 349 349 349 348 348 348 347 347 347 347 345 345 345 344 344 345 345 345 345 344 344 345 344 344 344 346 346 346 347 346 347 349 351 349 347 346
329 328 329 331 328 322 320 314 304 302 300 297 299 300 306 303 302 304 305 306 307 308 309 308 309 308 308 309 306 306 303 311 311 313 312 318 316 328 335 338 337 341 341 341 342 344 348 349 343 346 349 351 352 350 350 351 351 351 350 349 349 349 348 348 348 348 347 347 347 346 346 345 344 344 345 345 344 345 345 345 345 345 345 344 345 344 344 344 346 346 346 347 348 351 349 347 346
331 333 329 326 318 320 314 311 305 301 299 298 300 303 303 303 303 305 306 307 308 308 308 307 305 311 307 304 305 308 307 308 311 313 310 312 324 330 332 335 339 338 339 342 342 343 347 346 342 346 348 350 351 351 350 350 351 350 350 349 348 349 348 348 348 348 347 347 347 346 346 345 344 344 345 345 345 345 346 346 346 345 346 346 347 347 346 344 345 346 347 348 349 349 347 347 345
332 330 328 324 319 313 311 306 302 303 297 299 298 303 303 304 304 305 306 308 308 307 307 307 306 310 309 306 308 303 306 312 314 312 313 319 331 330 334 335 333 333 336 338 339 342 346 344 343 346 347 349 351 351 351 351 351 350 350 349 348 348 348 347 347 346 347 346 346 346 345 345 345 344 344 345 345 345 345 346 346 347 347 347 347 347 348 347 346 346 347 347 349 348 346 347 346
327 324 328 323 315 314 309 305 302 300 300 303 301 301 304 305 304 305 306 307 308 308 308 306 305 304 304 307 310 306 311 305 312 313 320 321 333 331 334 334 325 324 329 336 338 339 343 340 341 344 346 348 349 349 349 349 351 351 349 349 349 348 348 348 347 346 346 346 345 345 346 345 345 344 344 345 347 346 345 345 347 346 347 347 348 348 348 348 348 346 347 348 349 347 347 347 347
325 321 319 318 314 314 305 301 301 301 300 304 302 303 304 305 305 305 305 306 307 307 308 306 307 306 303 308 309 313 315 316 312 314 327 329 332 332 332 324 324 325 327 332 337 339 342 337 341 342 343 345 347 347 348 348 349 350 349 349 348 348 348 348 347 347 346 346 345 345 345 345 345 345 346 346 346 345 344 345 345 346 347 348 348 349 349 349 348 348 347 348 348 348 347 347 347
323 311 317 308 309 307 303 301 302 302 302 305 304 304 304 305 305 305 304 304 304 304 306 306 306 303 304 309 303 319 317 319 318 320 320 319 323 325 326 324 321 321 324 330 337 338 337 335 337 340 342 343 345 346 347 348 348 348 349 349 349 348 348 347 346 347 346 346 344 344 345 345 345 345 346 346 345 345 345 344 345 346 346 348 348 349 350 349 349 348 348 347 348 347 346 346 346
318 314 318 308 305 307 303 300 300 303 303 304 304 305 307 305 305 304 303 305 306 306 306 305 305 301 304 305 305 312 315 320 319 321 323 325 324 326 323 324 323 324 327 331 335 337 340 334 335 337 339 341 343 345 346 347 348 348 348 348 348 348 348 347 346 346 346 346 346 345 345 346 347 347 347 346 345 345 344 344 344 345 346 347 347 348 349 350 350 349 349 348 348 346 345 347 344
314 312 307 307 307 301 301 302 302 301 302 304 304 304 305 305 304 305 304 304 304 305 305 306 305 301 304 302 305 311 314 317 317 318 320 320 322 324 325 324 327 330 330 329 335 335 336 336 332 334 336 339 341 344 345 346 346 347 348 348 347 347 347 347 347 346 346 346 346 345 345 344 347 347 347 346 346 345 344 344 345 345 346 346 347 348 348 349 350 350 349 348 347 345 344 343 342
307 314 313 304 304 300 301 300 301 304 303 304 305 305 305 305 304 304 305 304 306 304 305 305 303 303 303 304 307 319 319 314 314 314 319 320 322 321 320 323 328 332 329 332 335 335 334 336 331 331 333 334 337 341 343 345 345 346 346 347 347 346 346 346 346 346 346 344 345 344 345 346 347 346 346 346 345 344 344 344 345 345 345 346 346 347 348 349 349 348 348 348 347 344 343 343 343
307 309 310 303 302 299 301 299 301 302 303 304 302 304 306 305 305 303 304 302 304 304 304 305 302 304 302 304 308 314 314 313 315 318 319 320 316 318 322 322 325 329 331 332 332 332 334 333 335 331 329 331 333 336 339 342 343 344 345 345 345 345 346 346 346 345 346 345 344 345 346 346 346 346 345 345 344 343 343 344 343 344 345 345 346 346 347 348 346 346 347 347 345 344 344 343 341
308 311 305 302 303 302 302 301 301 301 303 302 302 304 305 304 304 304 304 304 305 303 303 305 305 305 300 303 309 312 313 316 315 321 319 318 319 319 321 320 324 328 329 331 331 331 332 333 332 333 334 327 329 332 334 336 338 340 342 344 345 344 345 345 345 345 345 345 346 346 346 345 344 345 345 344 343 343 343 342 343 343 343 344 345 345 346 346 345 345 346 345 343 343 343 343 341
309 310 306 302 304 302 301 301 303 300 301 302 304 304 305 303 304 304 304 302 303 302 304 306 305 304 302 305 307 306 308 311 311 314 316 320 322 323 324 324 326 327 329 329 328 329 330 332 332 333 334 336 336 332 329 331 334 337 339 341 341 342 343 343 343 343 343 343 344 343 341 340 340 341 343 344 343 342 342 342 342 342 343 343 344 345 345 345 344 345 345 344 342 343 343 342 341
311 312 306 305 301 300 302 300 299 299 300 304 303 304 304 306 305 305 304 302 303 306 307 307 306 304 299 301 302 305 307 310 311 313 314 315 316 317 327 325 326 329 328 327 326 327 327 329 330 333 333 333 335 336 337 337 330 332 335 336 338 339 340 340 339 340 340 339 340 339 337 334 334 335 336 337 340 338 337 336 338 341 342 342 343 344 345 345 344 343 344 344 341 342 343 341 341
314 310 308 303 300 300 301 301 302 301 302 304 303 304 304 306 306 303 305 304 304 309 307 303 306 303 304 304 305 307 308 310 313 315 314 315 316 316 315 315 314 315 319 325 326 327 327 328 329 329 332 332 333 333 335 337 333 328 331 334 335 336 337 337 337 337 334 332 333 332 330 334 330 334 327 333 331 335 333 333 334 339 340 341 342 343 344 344 344 342 343 343 342 341 342 340 338
314 312 304 302 300 299 300 300 301 299 302 305 304 304 302 302 306 305 306 305 302 304 305 306 305 308 306 306 309 309 310 312 312 311 310 310 309 309 310 311 312 312 315 316 316 316 318 325 326 327 329 330 332 333 334 335 337 329 329 328 329 330 333 333 333 331 327 326 327 326 326 337 341 341 339 338 328 337 329 326 329 336 339 340 340 341 343 343 343 342 342 343 342 341 337 335 333
312 307 303 301 301 299 301 301 302 304 302 304 304 304 302 300 304 305 306 305 303 305 305 307 308 308 308 309 311 311 310 308 308 307 306 306 307 306 307 309 309 309 310 311 314 316 317 317 321 325 324 327 330 333 334 335 336 334 337 339 338 334 330 328 333 337 330 341 327 335 339 339 339 338 338 332 338 338 335 325 326 331 337 337 336 339 341 342 342 342 342 342 340 338 333 335 331
308 305 303 300 301 301 304 303 304 302 302 304 304 305 303 302 302 304 301 302 304 303 303 305 304 306 307 308 309 308 307 306 306 305 304 304 304 304 305 306 307 308 309 311 312 313 314 315 316 317 323 326 327 329 333 334 333 334 335 337 337 333 334 335 337 338 339 340 340 340 337 339 337 337 336 336 337 327 335 324 325 329 334 334 333 335 337 340 341 341 342 340 338 333 332 334 332
308 304 301 301 303 302 304 304 303 304 304 302 302 304 303 303 303 305 301 301 303 300 300 302 302 302 304 306 306 305 305 304 305 304 303 304 304 304 304 304 304 305 306 308 309 312 312 312 314 316 318 321 325 328 330 331 332 332 333 334 335 336 337 338 338 337 338 339 339 338 337 337 337 336 325 320 326 338 333 320 322 324 326 327 325 330 332 335 339 339 338 336 333 329 334 331 331
308 302 302 302 303 302 303 303 304 304 304 302 302 303 302 303 303 302 301 301 300 301 303 301 301 302 303 304 304 304 303 303 303 303 302 303 303 304 304 304 304 305 307 308 308 309 310 310 312 313 315 318 321 324 328 329 330 330 332 332 333 333 335 337 338 338 338 339 339 337 337 336 335 334 337 338 338 337 337 337 335 336 337 337 325 336 337 338 335 337 336 330 333 333 331 330 329
304 302 304 304 303 302 303 303 304 303 303 302 302 301 301 304 304 302 301 299 297 301 303 303 303 304 302 301 302 302 301 301 300 301 301 301 301 301 302 303 304 305 306 305 306 306 309 311 312 313 313 315 318 321 324 327 327 328 329 329 330 332 333 335 336 337 337 338 338 337 336 337 335 335 335 336 336 334 334 335 335 336 336 336 335 336 337 334 332 328 328 330 331 332 330 329 329
300 304 304 304 303 301 303 303 302 302 301 301 300 302 302 301 301 302 302 300 302 305 304 304 304 303 302 302 301 300 300 299 299 300 300 300 300 301 302 302 302 302 304 305 306 306 308 308 311 313 313 313 315 318 321 324 326 327 328 329 329 330 331 332 334 336 337 337 338 338 336 334 334 335 333 334 335 333 333 334 334 335 335 335 335 336 333 332 332 330 326 323 328 327 327 327 328
301 301 303 302 303 301 303 302 302 302 301 300 302 303 300 301 298 302 301 303 304 305 305 305 303 302 302 300 299 299 299 299 299 300 300 300 300 300 301 301 302 304 304 304 306 306 308 308 310 311 313 314 315 315 316 318 323 325 326 327 328 327 329 331 332 334 336 336 338 337 335 334 333 333 332 334 333 332 333 334 334 334 334 334 334 334 331 329 329 329 328 325 323 325 325 324 325
301 302 303 301 302 302 302 302 301 301 301 302 302 300 300 301 300 302 300 303 304 304 304 302 301 301 300 299 298 298 298 298 298 299 300 300 301 301 302 301 301 302 303 304 305 305 307 309 310 309 312 314 315 316 316 318 320 322 324 326 327 325 329 329 331 332 333 335 337 335 335 335 332 332 332 332 332 330 331 332 333 333 333 333 334 332 330 328 328 327 327 325 322 321 322 322 322
302 301 302 302 302 302 302 301 301 300 301 302 300 300 302 301 302 300 302 303 304 304 302 300 299 299 298 298 297 298 297 297 298 298 299 300 300 299 300 299 300 299 300 303 304 305 305 307 308 309 312 314 316 317 316 316 318 320 322 323 325 326 327 329 331 332 332 334 335 333 334 332 332 331 332 332 330 330 331 332 330 331 331 333 333 331 330 329 327 326 326 324 322 321 320 321 321
302 301 301 301 301 301 301 300 301 301 300 301 298 298 300 302 300 296 302 303 303 301 300 299 298 297 297 297 297 298 297 297 297 298 298 299 298 298 299 299 299 299 301 301 302 303 306 306 306 307 309 311 311 313 316 317 318 318 321 322 323 324 326 329 330 330 332 333 333 335 334 333 332 331 332 332 330 329 331 330 329 330 331 331 332 332 330 328 327 326 324 324 323 322 321 321 321
301 301 300 301 302 302 301 301 300 301 298 300 300 298 300 301 299 299 301 303 303 299 298 298 297 297 297 297 296 297 296 297 297 297 296 296 297 297 297 297 298 299 299 301 302 303 303 305 305 305 307 309 311 310 315 316 317 319 320 321 322 324 325 326 328 329 330 333 332 332 332 332 331 331 331 332 330 329 330 329 328 328 330 329 331 331 328 327 327 326 326 325 323 322 321 321 321
300 299 297 299 300 298 300 299 300 301 298 300 300 298 298 298 298 301 303 304 302 299 297 297 296 296 296 296 296 296 296 296 296 296 297 297 297 297 297 298 298 298 300 301 301 303 304 303 305 306 306 307 307 307 308 310 316 317 319 320 321 324 325 325 327 328 330 331 331 332 330 330 331 330 330 332 330 330 329 328 328 327 331 329 329 330 328 327 325 325 324 324 322 321 320 320 320
301 299 298 299 297 296 299 301 300 299 298 300 300 290 295 298 299 302 303 302 300 297 296 296 296 295 295 295 295 295 295 296 295 295 296 296 297 297 296 297 298 297 298 299 299 300 303 305 304 305 306 305 306 306 307 309 310 315 318 319 320 321 322 323 325 327 328 330 331 332 331 330 329 327 329 332 330 329 329 327 327 327 329 329 329 328 326 326 324 322 321 322 318 320 319 319 319
298 299 298 297 296 294 300 299 299 298 300 300 300 290 293 298 299 302 303 302 298 295 294 295 295 294 294 295 294 294 295 295 295 295 296 297 296 297 297 297 297 298 298 297 298 299 299 301 304 303 304 303 303 303 305 307 310 309 314 318 319 320 321 322 324 327 326 328 330 331 329 328 327 327 328 330 330 328 328 327 327 327 328 328 328 327 325 326 323 321 320 320 319 319 319 318 319
300 296 294 298 294 295 297 300 298 296 298 301 297 291 293 296 298 301 301 299 297 294 294 294 294 294 293 294 293 293 294 295 296 296 296 296 296 296 297 297 297 297 297 297 298 298 298 299 300 302 303 302 302 302 303 305 306 308 308 310 318 320 320 321 323 324 327 326 328 330 330 327 326 328 328 329 329 328 328 327 327 326 327 327 326 327 325 323 322 321 321 320 317 318 318 317 318
299 296 293 293 294 294 295 298 299 298 297 299 296 290 294 295 299 299 300 297 295 294 293 293 293 293 293 293 293 293 293 294 295 295 296 296 296 295 296 296 297 297 297 297 297 297 297 298 299 299 300 302 302 301 302 303 305 305 306 307 308 317 319 318 321 324 326 327 327 327 330 327 325 326 326 327 327 328 328 327 327 327 328 326 325 325 323 323 322 320 320 319 320 317 318 317 317
296 297 293 294 291 293 291 296 297 299 296 293 297 294 295 296 298 297 298 297 294 293 292 292 292 292 293 293 293 292 293 293 293 294 295 296 296 296 296 297 297 297 297 297 298 298 298 298 298 298 299 299 300 301 300 301 302 303 304 306 307 306 310 317 318 320 324 325 325 325 328 327 325 326 326 327 328 326 327 327 327 326 328 326 325 324 323 324 322 322 319 319 320 318 317 317 316
291 292 291 291 292 292 291 292 295 297 295 293 294 294 294 295 296 296 295 296 294 292 292 292 291 292 292 292 292 292 292 292 293 294 295 295 296 296 296 296 297 297 296 296 297 297 298 298 298 298 299 298 298 300 301 300 300 302 302 303 304 304 305 308 315 319 323 325 323 323 326 326 325 325 325 325 324 326 327 326 325 328 327 325 324 323 323 322 321 321 320 319 319 319 318 317 317
292 292 291 290 290 291 292 295 297 295 293 292 293 291 292 294 295 294 295 295 293 292 292 291 291 291 292 291 291 292 292 292 294 295 295 295 296 296 296 296 296 297 296 296 296 296 296 297 297 298 298 298 299 299 299 299 299 298 299 300 300 302 303 303 307 314 317 319 322 323 322 325 325 325 325 326 325 324 324 325 324 327 326 325 324 323 322 322 321 321 320 318 317 316 317 317 317
293 293 293 291 291 293 295 296 296 296 292 292 292 293 292 293 294 293 294 293 292 291 290 290 290 291 291 291 290 291 291 291 295 295 295 296 296 296 296 296 295 295 295 295 295 295 295 295 296 296 297 297 297 297 298 298 297 296 297 297 297 300 303 303 304 310 316 318 320 322 322 322 324 324 324 325 324 321 323 324 324 326 325 323 323 324 322 323 322 321 320 318 317 316 315 316 316
293 293 292 292 293 290 295 294 296 297 291 290 293 291 292 293 294 293 293 292 290 290 289 289 289 290 290 290 290 291 291 294 294 294 294 294 293 294 295 295 295 293 294 295 294 294 294 295 295 294 296 296 296 296 297 298 298 297 296 296 297 299 301 302 301 304 310 315 318 319 320 323 323 322 323 324 323 324 322 322 324 324 324 322 323 323 323 320 321 321 319 317 317 316 315 316 315
294 292 292 291 291 294 294 294 296 295 292 290 292 290 291 292 294 294 292 290 290 290 290 289 289 289 290 290 290 290 291 291 292 292 292 292 293 293 292 292 292 293 294 294 294 294 295 294 295 295 294 295 296 296 296 296 299 300 298 297 299 299 301 302 303 305 309 313 316 317 319 320 321 321 322 323 322 322 322 321 322 323 322 321 321 322 321 320 321 320 319 316 314 315 314 315 313
294 294 291 289 293 290 287 293 294 294 292 289 291 289 290 293 294 293 292 291 291 292 291 291 291 289 289 289 289 289 288 289 289 290 290 291 291 291 292 292 293 293 292 292 293 294 294 294 294 294 294 295 295 296 297 296 296 299 300 299 298 298 298 302 303 304 304 307 309 312 315 316 321 321 323 323 322 322 321 321 322 322 320 320 321 320 319 319 318 318 317 315 315 309 310 310 312
294 295 292 291 291 290 289 289 292 293 293 292 291 288 288 291 289 288 291 293 292 290 290 290 290 291 291 291 290 290 288 289 289 289 290 290 290 290 291 291 292 292 292 292 293 292 292 294 295 295 295 294 295 295 296 297 295 296 298 298 299 298 298 298 299 298 299 301 304 309 312 314 316 319 321 321 319 321 322 322 321 321 320 320 320 320 319 318 318 317 317 315 314 311 309 310 311
291 295 292 291 290 289 290 291 289 288 287 291 288 280 283 289 290 289 290 291 288 289 288 288 288 289 289 288 288 289 290 290 289 289 289 289 290 290 291 291 291 291 291 292 293 293 293 293 293 294 295 295 295 295 295 296 296 293 294 294 294 294 294 294 295 295 297 298 302 306 310 312 314 316 318 321 319 319 320 321 320 320 320 320 319 319 319 319 318 317 317 316 315 314 311 310 309
288 289 290 291 290 290 289 288 288 283 281 288 290 280 278 287 287 289 289 288 287 287 287 287 288 288 288 288 288 288 288 288 290 289 289 288 289 289 290 290 291 290 291 292 292 292 293 293 293 294 294 294 296 295 295 295 294 295 293 294 295 294 294 295 296 298 299 299 301 304 307 310 312 313 315 318 320 319 320 319 318 318 319 318 316 318 318 318 318 317 317 316 315 315 313 309 309
287 291 293 289 290 288 288 288 288 285 290 290 289 287 280 280 287 292 290 287 286 286 286 287 287 287 287 287 287 288 288 288 288 288 288 288 289 289 289 290 290 290 291 292 292 292 292 292 293 293 293 294 294 295 295 295 293 294 294 292 294 295 295 295 295 297 300 300 300 302 303 306 308 310 312 314 319 319 319 319 319 318 317 318 315 316 316 318 318 318 317 317 316 315 314 311 310
289 290 290 288 288 289 289 288 287 287 284 280 285 289 281 281 287 291 289 285 284 284 284 285 286 286 286 287 287 288 288 288 288 288 288 288 288 289 289 289 291 291 292 291 292 292 293 293 293 293 292 293 293 293 295 294 294 293 293 293 292 295 296 296 297 297 298 299 298 300 301 303 306 308 308 309 314 318 317 318 318 318 317 317 313 316 317 318 317 316 315 315 315 314 314 314 313
291 291 291 291 291 291 291 288 286 285 281 277 282 287 280 280 287 287 288 286 285 284 284 285 285 286 286 286 287 287 288 288 289 288 288 288 289 289 290 290 290 291 291 293 292 292 292 292 292 292 292 292 293 293 293 294 294 294 293 293 293 292 295 296 296 296 297 299 297 299 300 300 302 304 305 306 308 315 317 317 318 318 317 317 313 317 317 317 317 316 315 314 315 313 313 313 312
291 291 291 290 290 289 288 287 285 282 277 280 285 286 283 276 283 285 285 285 284 284 285 285 286 286 286 286 287 287 287 287 288 288 288 288 289 289 290 289 290 291 291 292 292 292 292 292 291 291 291 291 292 292 293 292 293 293 293 293 293 292 293 296 296 295 296 297 297 297 298 299 300 301 303 303 305 309 315 315 317 318 318 315 312 316 316 316 316 316 315 315 314 312 312 312 311
291 289 287 286 286 287 285 284 285 277 276 282 284 284 284 273 280 285 286 285 285 284 283 283 284 285 285 286 286 287 287 287 287 287 287 288 288 288 289 289 289 290 290 290 291 291 291 291 291 290 291 291 291 291 291 291 291 291 293 293 293 293 292 295 295 295 295 296 297 297 297 298 297 299 301 302 303 305 310 315 315 317 316 315 314 315 316 316 316 315 315 314 313 313 312 311 310
291 288 287 281 278 280 277 281 275 277 276 281 282 281 277 278 282 285 283 284 284 285 285 284 284 284 285 285 286 286 287 287 286 286 286 287 287 287 288 288 289 289 289 290 291 291 290 290 290 290 289 289 291 291 290 291 291 291 292 292 292 292 293 294 295 296 296 297 297 296 296 296 297 297 298 300 301 302 304 312 315 316 316 315 314 315 315 316 316 315 314 314 313 312 311 311 310
287 286 283 279 276 275 272 275 278 278 282 283 281 282 275 281 283 287 285 285 285 285 286 285 285 284 284 285 286 286 287 286 286 286 286 286 287 287 288 288 289 289 289 289 288 290 290 289 288 289 289 289 290 291 291 291 291 292 292 292 292 292 293 293 295 295 296 296 297 297 296 296 297 296 297 298 301 302 302 305 312 315 316 315 313 315 315 315 315 314 314 314 312 312 312 311 310
286 287 284 281 279 275 270 274 272 274 276 279 282 276 275 276 281 287 286 286 286 286 286 286 286 286 286 286 286 286 286 286 286 286 286 286 287 287 288 288 288 288 288 289 288 287 289 288 288 287 287 287 286 286 287 287 288 291 292 293 293 293 293 293 295 296 296 296 297 296 297 297 296 296 297 298 300 300 301 302 308 314 315 316 314 314 314 314 314 314 314 313 313 313 312 310 310
286 287 287 281 279 284 275 277 275 274 273 273 277 275 281 281 286 286 286 286 286 286 286 285 284 285 285 285 285 285 285 285 286 286 286 286 287 287 287 287 288 287 287 288 288 288 287 287 286 285 283 283 282 283 284 284 286 287 288 290 292 293 293 294 294 296 296 297 296 297 296 297 297 297 298 298 299 300 300 300 303 310 314 315 314 314 314 313 313 313 313 313 312 312 311 310 309
284 284 281 282 285 282 277 277 280 276 275 272 279 278 282 287 286 284 285 284 284 285 285 284 284 284 284 284 284 284 285 285 285 285 285 286 287 287 288 288 288 287 287 287 287 288 286 284 283 282 282 281 281 282 283 284 284 285 286 286 290 292 292 293 293 295 296 296 296 297 297 297 298 297 297 297 297 298 299 300 300 306 313 314 313 313 313 313 313 312 312 312 311 311 311 310 309
285 280 282 285 286 281 277 271 274 273 270 272 278 275 277 278 274 283 284 281 283 283 283 283 283 284 283 283 284 284 284 285 285 286 286 286 286 287 287 286 287 286 286 285 285 286 284 283 283 282 282 282 280 280 280 281 283 285 286 286 289 291 292 293 294 294 295 296 296 296 297 296 296 297 296 296 296 297 297 296 299 303 310 313 312 313 313 313 312 312 312 312 312 311 310 310 309
284 282 286 279 274 273 278 273 267 269 269 271 275 277 277 277 277 280 281 280 281 282 282 282 282 282 282 283 283 284 284 284 284 285 285 285 285 286 287 286 286 286 285 285 284 283 283 282 283 284 281 283 284 285 285 281 283 285 287 287 288 291 293 293 294 295 295 295 295 296 296 296 297 296 295 295 295 295 296 296 298 300 307 311 312 312 312 312 312 311 312 311 311 310 309 308 308
285 285 282 286 279 276 273 276 274 274 269 270 271 275 271 280 280 281 281 281 281 281 281 281 281 282 282 282 283 283 283 284 284 285 285 285 285 285 284 284 284 284 284 283 283 283 283 282 281 283 283 282 284 283 281 284 283 280 281 283 285 289 292 293 294 294 294 294 295 295 296 296 296 296 295 295 294 294 294 295 297 298 303 311 311 312 312 312 311 311 310 311 311 310 309 308 307
280 280 279 279 279 280 279 277 273 272 269 269 268 267 274 279 281 281 280 281 281 281 281 281 282 282 283 283 283 283 283 284 284 284 284 284 285 285 285 284 283 283 283 282 281 280 281 281 281 280 282 279 279 282 282 279 281 280 280 280 281 282 283 290 292 293 294 294 295 296 296 296 296 295 295 294 293 293 294 294 295 296 299 307 311 311 312 311 310 310 310 310 310 309 308 308 306
282 280 278 279 276 274 271 270 278 271 271 268 268 267 274 281 283 282 282 282 282 283 282 281 282 282 282 283 283 283 283 284 284 285 284 284 284 284 283 283 283 282 280 280 281 280 280 280 281 280 279 281 279 279 282 278 277 279 279 279 279 280 282 284 288 292 293 294 295 296 296 296 295 295 295 294 294 293 293 294 294 295 297 303 310 311 311 311 309 309 309 310 309 308 307 307 305
Wind_Speed
6 6 4 6 5 4 4 3 4 4 5 3 4 3 5 2 4 5 3 4 2 7 6 6 5 5 7 9 10 11 10 10 6 7 7 3 1 1 2 2 3 3 4 4 4 5 8 8 8 6 7 11 12 13 12 13 13 13 14 14 14 14 14 15 14 14 14 14 14 14 14 14 13 13 13 14 15 15 14 14 14 14 15 14 13 13 13 13 12 12 12 13 13 8 11 11 13
4 4 5 4 5 4 3 2 5 3 4 5 5 2 6 2 6 5 7 7 4 5 5 5 6 6 6 8 9 10 9 4 6 7 8 3 7 3 3 2 3 4 4 4 4 5 7 10 9 9 9 10 13 14 13 13 14 14 14 14 14 14 14 14 14 14 14 14 14 15 15 15 15 14 14 15 15 15 15 14 14 15 15 15 14 14 13 13 12 12 13 14 14 9 13 13 13
3 4 3 5 4 6 2 2 4 3 1 4 5 6 0 3 6 6 7 6 6 4 2 3 5 6 7 7 8 5 6 10 6 7 7 9 8 7 10 7 3 4 4 4 5 5 4 8 13 12 11 11 11 14 14 13 14 14 14 14 14 14 14 14 14 14 14 14 15 15 15 15 15 13 13 15 16 15 16 15 15 15 16 16 15 14 14 13 13 12 13 14 15 10 13 15 15
4 4 5 3 4 4 5 5 3 4 4 2 4 5 6 5 6 7 6 5 4 2 2 3 4 5 6 8 9 11 7 4 10 6 6 9 5 6 7 7 4 4 4 3 5 5 5 6 14 14 13 12 11 12 13 13 13 14 14 14 14 14 13 14 14 14 14 14 15 15 16 14 14 14 14 15 15 15 16 16 16 15 16 15 15 14 14 14 13 13 13 15 15 9 13 15 17
4 4 4 5 6 5 4 2 3 4 4 4 5 5 6 6 7 7 7 5 3 1 1 3 6 6 2 8 6 5 7 10 4 9 5 4 5 5 5 5 5 5 5 4 5 6 5 3 8 10 12 12 13 8 10 11 12 13 12 13 14 13 14 15 15 15 15 15 15 15 15 15 15 14 14 14 15 15 15 15 15 15 15 16 15 15 14 14 14 14 13 15 16 10 14 16 18
5 4 4 4 4 5 3 4 1 4 5 4 2 5 5 7 8 8 6 5 4 2 3 4 4 10 4 6 2 5 7 7 9 7 3 4 4 4 5 6 6 6 6 4 4 5 6 5 2 4 9 12 13 9 7 6 9 13 14 14 15 14 14 15 15 16 16 16 15 15 15 15 15 14 14 10 6 5 6 7 11 15 14 15 16 16 15 15 14 14 14 15 15 12 17 17 17
3 4 4 5 5 3 4 3 2 2 5 3 4 3 5 7 8 7 7 5 7 2 1 3 3 8 8 1 5 7 6 3 5 6 4 6 5 5 7 8 8 8 7 6 4 4 4 7 3 4 6 7 11 9 7 7 7 10 14 13 14 14 14 14 14 15 16 16 15 15 15 15 15 14 11 8 8 7 8 10 10 11 13 14 15 16 17 16 16 15 15 15 10 16 18 18 19
3 4 1 5 3 4 2 1 3 4 5 2 3 2 5 7 7 6 7 7 5 5 3 1 2 5 5 2 5 5 2 4 4 7 8 8 9 9 9 9 9 9 8 6 5 4 2 4 1 5 7 10 10 9 8 9 8 9 11 12 12 13 14 15 15 14 15 16 17 16 16 15 13 13 11 10 10 9 10 10 11 12 13 14 15 16 17 18 17 16 15 14 12 16 19 19 20
4 5 2 3 6 3 3 2 4 4 4 2 3 2 2 4 5 6 5 6 5 3 4 4 2 5 6 12 6 4 6 4 1 4 6 9 10 11 7 9 9 9 9 7 5 4 5 5 5 6 7 10 11 12 12 12 11 10 11 12 12 13 14 15 16 15 15 15 15 16 14 13 11 11 11 11 11 11 11 11 12 12 12 13 14 15 17 18 18 18 16 15 15 16 17 16 16
4 4 2 4 5 4 1 3 1 5 3 3 1 3 4 5 7 5 6 5 7 6 4 2 2 6 9 9 8 3 4 4 3 5 11 11 10 10 10 9 8 9 8 7 6 6 6 2 4 6 8 8 11 13 15 15 14 13 11 11 12 12 12 12 13 15 14 14 14 15 12 12 10 11 11 11 12 12 12 12 12 12 13 14 15 15 16 17 18 18 17 13 15 17 19 16 19
5 5 2 4 5 3 2 4 4 5 4 3 3 2 4 4 5 5 5 6 4 6 3 2 4 6 10 8 5 5 8 7 9 10 10 10 9 9 10 10 8 7 9 9 7 7 7 7 4 5 7 10 9 11 13 14 16 15 13 12 12 12 11 12 12 12 12 13 16 16 14 12 10 11 12 12 13 13 11 12 12 13 13 14 14 15 15 15 17 18 16 13 15 19 21 20 21
5 2 2 5 4 4 5 4 3 3 4 4 4 4 4 7 4 6 10 10 8 5 5 4 5 9 8 5 5 3 11 11 8 8 9 10 10 10 8 7 8 7 7 8 8 7 7 7 7 6 9 9 10 11 11 12 14 14 14 14 14 12 12 13 12 11 11 13 16 14 12 12 11 12 12 13 15 13 11 12 13 14 14 14 14 15 14 14 15 16 14 13 14 20 19 21 20
6 5 5 6 3 3 5 3 5 2 5 4 4 3 2 6 7 9 8 8 8 7 7 7 9 6 5 7 4 4 13 9 13 9 10 9 9 8 6 7 6 6 7 7 7 8 8 7 7 8 6 10 11 11 11 12 12 14 14 12 12 14 13 12 12 11 11 12 13 11 11 11 10 11 12 14 14 14 13 13 14 14 14 13 14 15 14 13 14 15 10 14 16 21 22 25 24
4 5 5 4 1 2 2 3 1 4 4 3 4 3 2 5 5 9 9 7 8 8 5 8 6 6 3 7 5 11 14 16 17 14 11 11 8 6 6 4 4 5 5 6 7 8 8 8 8 7 8 7 8 10 13 14 13 12 12 13 12 12 13 13 12 11 11 11 11 11 11 10 11 11 11 11 13 13 13 14 15 15 14 14 14 14 14 13 13 12 13 15 15 20 21 24 22
4 4 3 4 1 2 4 3 5 5 3 3 4 3 7 3 3 6 8 9 5 6 3 1 5 6 9 10 9 11 14 16 16 16 14 13 13 9 6 5 5 5 5 4 5 6 8 9 9 7 8 8 9 8 8 11 16 15 14 13 13 13 13 12 11 11 11 11 12 11 11 11 10 11 10 10 12 11 10 9 9 14 14 15 13 13 13 13 11 12 15 15 17 17 21 25 28
3 4 4 4 1 2 5 3 1 6 2 7 4 2 6 5 3 5 4 5 6 5 4 4 2 6 7 10 11 12 15 13 13 14 14 13 12 10 12 12 13 13 9 7 7 7 7 8 8 8 8 8 8 9 9 10 10 17 15 14 13 13 13 12 11 10 10 12 13 12 11 10 9 9 11 9 11 11 10 9 9 12 13 12 11 12 11 11 11 12 15 17 19 16 20 19 21
2 3 4 4 3 2 4 2 5 4 7 3 6 3 9 9 4 3 0 4 7 4 3 1 4 0 10 11 11 12 14 13 13 14 14 12 11 11 10 10 10 11 9 13 14 14 13 10 10 9 9 10 10 9 9 9 10 8 11 14 14 13 13 12 12 11 10 11 11 11 11 9 9 8 9 10 10 9 11 11 10 9 11 10 10 10 10 9 11 15 15 17 19 19 17 21 21
3 4 4 3 3 4 4 3 3 7 9 8 10 9 7 10 9 7 7 6 9 7 6 9 5 8 13 14 15 13 13 15 15 17 16 14 12 12 11 12 13 13 13 13 13 14 13 13 12 12 10 11 10 9 7 7 8 9 11 10 10 12 12 12 10 10 9 11 10 10 9 9 9 10 10 10 9 10 11 12 9 9 10 9 9 9 9 8 10 13 16 17 18 18 19 14 10
3 4 4 3 4 5 2 2 3 8 9 11 10 8 4 8 9 8 9 10 6 9 11 10 13 14 14 14 16 16 16 17 17 18 19 19 16 17 14 12 14 14 14 12 12 15 13 13 14 14 13 12 12 11 9 9 10 9 9 10 10 11 12 13 12 11 12 12 13 11 10 9 11 10 9 8 6 10 10 11 10 9 8 8 8 9 9 9 11 15 18 18 18 16 10 5 8
0 4 5 6 5 4 2 1 4 7 11 11 10 8 9 5 6 7 6 11 7 13 10 12 16 17 18 16 17 16 17 18 18 18 20 20 19 17 16 16 15 14 15 13 13 11 14 13 14 14 13 13 12 10 10 9 9 9 8 8 9 10 11 11 12 13 12 14 13 12 10 8 10 10 3 6 5 4 4 7 7 7 5 3 5 5 7 7 11 15 17 16 15 10 6 9 10
3 4 4 5 4 2 5 3 3 9 9 10 10 10 9 5 6 5 7 6 10 10 12 14 15 15 14 16 16 16 18 19 19 19 20 20 19 15 14 14 14 13 11 11 12 13 16 15 14 13 13 11 12 10 10 10 10 10 9 8 9 10 10 11 11 12 12 13 13 9 10 9 10 10 6 6 6 6 6 7 6 6 7 8 6 7 8 7 5 8 11 10 11 11 10 11 9
3 3 7 5 2 1 4 2 5 8 10 9 8 10 7 8 3 3 6 6 8 9 11 13 13 14 14 14 15 16 18 18 19 19 19 19 19 18 16 14 15 13 12 12 14 14 15 16 15 13 13 13 11 10 10 10 11 10 11 11 10 9 10 11 11 11 12 13 12 12 12 9 10 8 9 8 7 9 9 8 8 8 8 8 6 7 5 5 5 3 1 10 12 12 12 12 11
4 5 4 5 5 3 3 2 3 7 9 8 9 6 8 7 4 6 4 9 9 9 11 11 13 14 13 14 14 16 16 17 18 17 17 18 18 18 16 14 14 14 12 14 14 14 14 17 16 16 14 12 13 11 10 9 10 10 11 10 10 10 9 11 11 11 11 12 13 12 12 11 11 8 9 8 8 9 9 8 8 8 8 8 7 5 5 5 6 3 5 4 8 14 12 9 8
3 2 5 6 4 2 0 3 4 6 8 9 8 10 10 6 3 3 8 9 8 10 11 12 13 13 13 14 15 15 15 17 17 17 15 15 16 17 15 15 14 13 13 15 14 14 14 18 18 17 15 15 13 12 12 10 9 10 11 10 10 12 11 10 11 12 12 12 12 12 13 12 11 11 11 10 10 10 9 9 7 7 7 7 6 5 3 6 7 9 6 8 4 12 13 11 7
4 3 6 4 1 2 0 3 3 4 6 7 10 11 7 3 2 1 9 9 11 13 13 12 12 13 13 14 14 14 15 16 17 16 15 13 14 15 16 14 16 15 16 16 14 15 16 16 18 19 17 17 14 14 11 10 10 9 10 10 11 11 11 12 12 12 12 12 10 6 11 12 12 12 12 11 11 12 10 9 7 9 8 8 7 8 5 8 9 7 9 7 9 7 8 9 9
1 5 7 2 2 3 2 2 1 1 2 8 12 9 5 4 2 6 8 9 13 14 12 12 12 13 12 13 13 14 15 15 15 16 14 12 13 17 17 16 16 18 17 16 15 15 16 18 18 19 18 16 15 14 12 11 11 11 10 10 11 11 12 12 14 11 12 11 7 9 10 11 12 11 11 11 12 12 10 10 10 8 9 7 8 7 7 7 9 8 8 9 9 12 5 6 8
2 7 7 6 3 3 4 4 4 4 3 10 11 12 4 4 5 6 6 9 14 14 12 11 11 12 12 11 11 12 13 15 15 13 15 15 16 17 17 16 18 17 17 18 17 16 15 16 17 18 17 17 15 14 13 13 12 12 11 11 10 11 13 12 12 12 12 10 11 10 13 14 11 11 12 12 12 10 10 10 10 9 7 5 8 7 7 9 10 9 9 9 11 15 13 6 7
6 7 9 9 7 7 6 6 8 5 2 9 10 13 7 4 6 5 6 10 12 13 12 11 11 11 10 11 12 11 12 13 13 14 17 17 13 13 15 14 16 16 15 16 15 15 17 17 17 18 17 17 17 17 14 14 12 12 12 12 11 12 13 12 13 13 12 8 9 11 11 12 11 10 14 12 13 11 11 12 10 10 8 8 10 6 7 6 9 9 8 7 9 7 13 14 10
5 4 5 4 12 9 3 5 7 6 4 8 8 13 7 7 5 5 10 7 11 13 12 11 11 10 9 9 10 11 12 12 13 14 15 13 13 13 15 16 16 15 12 15 17 16 18 17 15 16 17 18 19 18 16 15 14 13 12 12 12 10 12 12 13 13 13 13 10 11 10 16 9 9 13 13 12 11 12 12 10 10 7 8 9 9 10 9 8 8 9 6 8 8 9 10 10
4 5 3 4 11 6 7 3 7 5 3 7 9 6 7 6 7 4 4 6 11 13 11 9 8 8 8 8 8 10 11 13 14 14 13 13 13 14 15 16 17 15 13 13 16 17 15 12 12 12 15 17 17 16 16 15 15 14 12 12 12 13 11 11 12 13 14 12 12 10 10 11 8 10 12 13 14 13 12 13 12 10 7 7 9 9 9 8 8 8 10 10 9 11 9 10 11
3 5 2 1 4 4 6 2 5 5 2 6 8 7 7 6 7 3 7 13 11 12 10 9 7 7 7 7 8 9 11 12 12 14 14 14 14 13 15 15 17 18 14 16 18 19 18 16 13 13 15 17 16 17 17 16 15 15 14 13 12 13 13 13 11 12 13 13 12 8 12 10 10 13 15 14 13 14 12 13 13 11 11 10 7 9 10 10 11 11 9 9 9 9 9 10 11
4 4 3 2 3 2 10 3 5 5 5 6 10 6 7 11 6 14 16 13 13 11 9 8 7 7 7 6 8 8 9 10 11 13 14 14 14 13 14 15 16 17 17 17 16 17 18 18 16 16 17 17 16 16 15 15 15 15 15 14 13 14 13 14 14 12 11 13 13 13 11 13 11 13 15 15 14 12 12 12 13 11 12 12 11 8 10 6 8 10 12 13 13 11 10 9 8
4 2 4 3 4 3 3 7 6 8 7 4 3 6 9 6 11 11 12 16 12 11 9 7 7 7 6 6 6 7 8 10 11 12 15 14 14 15 14 15 15 16 16 17 18 18 18 19 17 18 18 18 18 18 16 15 14 15 15 14 16 15 13 13 13 11 11 11 11 12 10 11 12 14 14 14 14 15 13 14 13 13 12 12 11 12 11 10 12 12 10 9 10 14 12 12 9
4 6 5 5 6 5 6 6 3 4 6 8 6 7 8 11 11 15 10 13 13 10 9 8 6 5 5 5 6 8 9 10 12 12 14 13 12 15 14 13 14 15 14 16 17 16 17 17 16 15 16 17 16 16 16 15 13 14 13 13 13 14 15 13 13 13 12 12 13 13 11 12 11 13 15 15 13 10 12 13 13 14 15 12 11 14 12 10 11 11 13 12 9 11 13 14 13
6 7 7 7 7 9 9 8 5 1 4 8 5 6 10 10 5 10 12 11 11 11 8 6 6 5 5 6 7 9 10 11 11 10 12 12 13 14 12 13 14 14 13 16 16 15 16 16 16 17 17 18 16 16 16 15 15 13 12 13 13 13 13 14 13 12 11 10 12 15 14 11 13 14 15 13 12 10 10 12 12 13 12 13 13 12 14 12 12 11 13 12 11 11 13 14 14
7 7 8 9 8 5 7 6 6 5 6 6 5 10 11 11 5 9 10 9 11 10 8 6 3 5 5 6 7 8 9 10 9 10 12 11 12 13 12 13 12 12 14 14 17 16 16 17 16 17 17 17 18 16 14 13 14 13 14 13 13 12 12 13 14 13 13 12 12 13 15 14 14 12 15 12 11 13 11 11 13 13 13 14 13 13 11 12 13 15 15 16 14 10 8 11 12
7 7 8 10 11 9 7 2 5 5 5 6 10 13 12 12 10 12 10 10 10 8 7 5 4 3 5 5 7 7 9 8 9 10 12 12 11 11 11 11 12 14 14 16 15 15 16 17 17 18 17 18 16 16 15 14 14 15 14 13 14 14 12 12 13 13 13 12 15 14 15 15 14 16 15 11 12 13 12 12 12 13 13 14 13 15 14 14 15 14 12 12 16 14 10 7 9
7 8 9 9 8 10 6 8 6 2 4 8 9 13 15 13 1 12 10 9 8 8 6 6 5 6 6 6 6 7 8 7 9 9 11 11 11 13 12 12 15 17 16 17 16 16 16 16 16 16 15 17 17 17 16 14 13 13 14 15 14 13 12 11 13 13 14 14 15 14 12 13 14 15 14 13 12 12 9 8 10 13 13 12 11 12 16 15 18 15 12 10 10 14 11 13 12
7 8 8 8 7 9 9 3 4 6 9 7 8 13 12 11 13 10 9 9 7 6 6 6 6 5 5 6 6 8 10 10 11 11 12 13 15 16 14 13 14 15 16 17 17 17 17 15 14 16 15 15 16 17 16 16 15 14 14 15 15 14 12 11 11 12 13 13 14 14 13 11 13 15 16 13 13 13 11 10 11 11 12 13 12 13 12 13 10 14 16 12 11 9 9 11 15
7 6 7 8 8 8 3 2 9 12 9 9 8 11 12 7 10 9 8 8 8 6 6 5 3 4 5 8 8 9 12 11 13 13 14 14 15 14 14 14 16 16 16 16 17 17 14 14 16 16 16 16 15 16 15 18 19 17 14 14 15 14 14 12 11 10 11 13 14 15 14 13 13 15 15 13 13 14 14 14 11 11 13 13 13 12 15 12 11 13 15 15 15 12 8 11 15
7 5 7 7 6 7 6 11 13 11 2 5 8 12 10 10 9 8 7 7 6 6 5 5 4 4 5 5 7 9 12 12 12 13 14 16 16 16 16 16 16 15 16 17 17 17 14 18 19 19 17 17 16 16 17 18 17 17 15 15 14 14 13 12 11 9 9 10 12 12 14 14 15 14 15 14 13 14 14 12 12 12 12 13 13 13 16 16 16 14 14 14 15 17 14 11 13
8 4 4 4 5 9 10 12 15 9 6 7 15 11 5 8 13 13 10 7 8 5 3 3 3 5 6 7 10 10 9 10 11 14 17 18 19 19 19 18 18 18 18 17 17 18 20 19 19 20 17 17 17 18 18 17 16 16 16 15 15 14 15 14 12 12 12 11 10 12 15 15 14 13 13 13 13 14 14 14 13 13 14 13 12 14 17 16 18 15 15 14 16 17 18 14 15
7 2 2 3 6 7 10 12 10 9 9 8 8 5 11 4 9 13 11 12 10 6 4 3 4 5 6 8 9 10 11 12 12 15 18 20 19 19 20 19 20 20 20 19 19 20 22 21 21 21 20 18 17 18 19 16 17 16 18 18 16 17 16 12 10 10 9 10 9 11 11 12 13 14 14 14 15 16 15 13 12 11 13 13 12 12 14 17 17 16 14 13 14 14 15 17 19
7 4 4 6 7 9 10 10 7 10 11 12 9 9 11 9 10 11 13 11 9 5 2 4 4 5 8 10 11 12 13 14 14 16 20 20 20 20 21 21 19 20 20 20 19 20 23 24 24 23 19 18 19 19 19 18 18 18 18 18 17 16 16 15 14 11 9 8 10 9 10 9 12 11 12 15 17 17 16 15 14 13 10 11 13 13 14 15 14 14 15 14 14 13 17 18 20
3 5 3 6 7 9 9 7 9 11 11 10 6 7 7 7 4 11 11 11 12 5 1 4 5 8 11 12 12 13 14 15 15 16 19 21 21 21 21 21 21 22 20 20 20 20 21 23 24 23 24 22 21 23 19 19 18 18 19 17 17 16 16 15 13 12 9 8 10 9 10 10 9 10 10 12 16 17 15 16 17 15 14 14 12 13 13 15 17 18 13 15 16 15 13 15 16
3 5 6 8 8 9 8 8 10 9 5 12 8 8 7 11 5 8 10 10 8 1 3 4 7 10 11 11 13 15 17 16 15 17 19 20 20 20 21 22 22 20 19 19 20 21 24 24 23 24 25 22 18 22 23 21 21 19 19 19 20 18 16 16 16 14 12 9 8 8 8 9 9 9 10 13 14 15 13 14 16 17 17 16 14 15 16 16 16 15 15 19 17 17 13 14 17
6 5 8 7 7 8 9 7 8 6 8 12 10 8 8 8 7 9 8 3 4 1 3 4 8 9 11 12 14 16 16 15 15 17 20 21 21 22 21 22 23 22 18 19 19 19 19 21 23 24 24 22 23 22 21 25 21 20 19 19 20 20 20 17 18 17 14 11 7 6 8 8 10 10 8 10 13 15 14 16 17 18 17 16 15 16 14 15 15 16 17 19 19 19 15 15 14
5 4 5 9 8 5 8 5 2 4 8 2 4 7 4 6 2 3 5 7 6 2 4 6 9 11 12 13 15 15 16 15 17 18 20 21 22 22 21 23 24 25 24 25 23 24 23 22 23 25 25 24 23 23 24 22 22 21 20 21 21 21 20 17 16 19 16 14 10 7 6 7 9 9 9 8 11 12 15 16 18 18 15 15 16 15 14 14 14 15 17 15 14 18 15 15 14
5 5 5 5 8 7 4 5 5 7 7 5 8 4 7 14 11 1 9 7 5 4 4 6 9 12 15 16 17 15 14 16 17 18 19 20 21 22 23 24 23 24 24 26 26 20 22 23 25 26 26 26 25 23 24 25 23 22 21 21 21 18 18 18 17 16 17 13 9 7 5 6 8 9 9 9 10 12 13 14 15 15 14 15 17 17 15 17 17 15 16 14 15 19 17 17 15
4 4 1 3 6 4 9 6 6 8 3 7 3 7 10 13 14 20 9 7 5 4 5 7 10 13 15 15 16 15 15 16 17 19 20 20 21 21 23 24 24 22 26 28 27 27 25 22 26 28 28 25 26 27 25 25 25 23 22 20 20 19 19 17 17 15 16 15 10 8 5 6 6 8 9 9 9 10 11 16 16 16 16 15 16 18 16 17 17 16 16 17 20 17 16 18 17
1 3 3 3 4 3 7 4 7 7 7 6 2 5 4 5 6 11 13 5 5 5 5 7 10 12 13 13 15 16 16 16 17 18 20 21 22 24 22 23 26 27 30 26 23 26 23 22 22 27 25 25 27 27 25 24 24 25 23 22 19 18 18 17 14 15 15 16 12 9 6 5 6 7 8 8 9 10 12 13 16 17 16 17 18 17 15 15 15 16 17 19 18 16 18 18 15
4 1 3 2 6 4 8 5 9 8 13 10 5 6 1 5 8 10 9 6 3 4 6 9 12 14 14 14 14 14 15 16 18 20 21 22 22 21 21 23 23 24 28 26 24 23 22 22 23 23 23 23 25 27 24 24 24 21 25 27 25 21 17 16 15 13 14 15 16 11 9 7 5 6 7 8 8 10 11 12 14 16 15 16 17 18 17 15 17 16 16 18 18 14 16 19 16
4 4 3 1 7 2 7 9 6 2 6 14 5 10 8 4 8 11 9 3 3 4 8 10 13 14 15 13 14 15 15 17 18 19 19 22 21 22 22 21 19 19 20 21 27 22 22 22 25 29 25 23 25 24 24 23 24 24 25 25 28 22 21 21 19 18 18 17 16 13 10 8 5 5 7 7 8 9 10 11 12 14 17 15 15 16 18 17 17 15 16 19 19 16 16 17 15
3 4 2 3 4 4 3 5 3 5 10 10 3 8 11 5 7 7 8 3 3 8 10 13 15 15 14 13 14 16 18 19 20 21 21 22 23 24 24 23 24 25 26 27 27 20 15 18 17 20 29 18 15 20 25 25 24 25 20 22 24 24 21 20 19 19 18 16 16 15 10 7 6 5 6 7 8 8 10 11 11 13 15 16 16 17 16 17 17 15 17 19 20 18 17 15 15
2 1 3 2 4 2 4 3 4 6 10 9 8 10 10 9 11 5 7 2 8 10 12 14 16 16 15 16 18 19 20 19 20 21 20 21 21 23 23 26 26 25 25 26 19 21 23 23 28 25 25 29 27 22 21 19 24 21 19 17 21 22 20 19 18 17 17 17 17 17 13 9 7 5 5 6 7 8 9 11 11 13 14 17 17 18 18 16 17 15 18 18 19 19 17 17 15
5 1 2 2 0 6 6 5 2 3 12 8 8 5 11 6 5 6 0 6 8 9 12 15 16 16 15 16 18 19 20 20 20 22 22 23 23 24 26 28 29 26 23 22 26 25 24 21 26 28 23 26 26 22 23 24 17 18 20 21 22 23 22 19 18 16 16 17 17 17 15 10 8 6 5 6 7 8 8 10 11 12 14 17 17 17 18 18 17 16 15 17 19 19 19 18 16
6 6 7 4 3 1 2 4 3 5 5 7 12 14 2 6 6 3 3 8 5 9 14 15 14 15 17 17 19 19 21 20 21 22 24 25 24 23 23 21 21 24 23 19 18 21 19 17 16 24 27 23 26 27 19 23 23 20 23 23 21 20 25 23 20 18 17 16 17 15 15 10 8 7 5 6 7 7 8 8 11 12 14 16 17 18 18 17 16 17 16 18 19 19 20 17 17
8 8 9 9 7 6 6 8 5 1 5 6 7 14 12 5 3 4 8 2 4 10 14 15 16 17 17 17 20 20 20 21 22 23 22 21 22 23 24 23 21 20 22 26 24 17 23 22 30 23 26 23 21 26 15 11 19 21 22 21 22 21 19 21 23 22 18 16 15 14 13 11 10 8 6 6 6 7 7 8 10 12 14 16 18 17 18 16 16 17 18 17 19 20 20 18 17
Wind_Direction
259 221 223 218 227 232 237 193 242 161 233 52 56 360 61 79 4 300 43 2 12 68 7 343 312 298 320 341 320 314 309 299 317 302 337 39 108 263 258 267 259 252 261 247 221 167 177 190 210 221 236 224 219 220 222 220 221 222 223 225 227 228 225 227 222 225 223 222 221 221 220 223 228 230 236 236 235 232 231 226 224 227 232 235 234 236 239 241 242 245 247 248 249 220 192 199 201
260 264 235 228 225 225 197 199 278 188 209 120 74 315 40 355 240 8 357 355 9 353 354 321 314 294 291 290 297 290 278 255 294 308 311 45 338 355 329 264 261 250 250 260 236 217 187 188 199 217 231 235 224 223 225 224 225 227 226 228 229 232 230 230 231 228 230 231 231 231 233 238 231 228 234 237 235 236 232 227 222 223 226 231 235 235 237 238 239 241 244 247 246 189 189 194 196
281 246 205 228 227 233 337 210 271 360 326 71 79 40 245 334 2 354 357 7 349 349 322 288 292 277 280 241 271 339 337 325 314 321 323 332 313 42 12 4 308 269 267 275 261 234 205 193 180 208 223 234 234 227 228 229 230 231 230 228 231 236 234 234 236 237 237 237 238 239 242 241 244 243 236 238 239 237 234 229 227 224 225 228 231 233 234 236 237 237 240 243 244 191 186 195 198
274 270 261 213 220 201 237 222 302 312 66 23 113 62 25 358 353 357 2 12 349 323 275 286 311 90 292 317 335 311 262 347 347 1 321 332 14 6 6 353 327 271 269 279 275 257 233 170 174 193 215 226 236 235 232 232 235 235 235 234 235 236 238 238 239 240 241 240 240 239 238 242 244 243 240 239 240 238 236 233 232 231 231 232 234 236 235 234 234 235 236 240 241 210 199 191 197
261 240 254 255 281 218 270 2 319 305 46 1 31 62 23 13 355 354 351 356 19 19 298 356 294 127 301 299 312 314 349 325 16 345 318 335 42 19 347 347 309 275 249 267 271 268 258 105 167 190 205 221 227 240 238 234 233 240 239 238 241 242 242 242 243 243 242 242 243 242 241 238 239 240 240 240 240 240 243 241 239 241 240 240 241 242 241 239 235 234 235 238 240 209 200 189 189
254 256 202 251 259 358 257 224 156 65 43 333 339 34 16 15 355 352 334 354 76 115 42 328 343 324 314 294 269 301 357 331 347 325 332 19 17 8 354 320 306 294 274 246 262 272 280 113 149 217 212 222 229 234 240 261 246 239 242 241 243 244 246 247 248 248 246 243 244 247 245 243 246 240 237 241 249 259 273 290 267 244 245 247 249 249 247 244 239 234 234 237 241 206 194 185 188
296 286 212 215 248 233 280 13 82 54 82 318 30 15 10 9 355 335 343 353 115 115 62 349 352 298 245 82 252 211 255 293 300 346 8 335 320 329 325 311 302 292 283 260 243 248 270 49 333 244 260 254 238 236 240 241 248 246 241 244 245 244 246 245 247 248 249 249 248 244 247 246 242 236 222 225 236 247 260 264 269 269 255 253 254 254 254 250 244 237 233 237 221 198 193 184 182
252 283 98 250 223 212 255 18 66 341 88 358 52 346 14 0 353 340 336 343 13 352 120 90 311 304 274 173 305 116 169 169 278 309 328 329 327 319 314 308 304 297 293 268 252 255 221 108 354 290 280 269 262 257 249 245 246 247 243 242 248 246 247 251 249 251 251 256 254 248 243 245 245 236 225 222 229 235 245 251 258 260 262 263 260 258 256 254 249 241 234 232 199 194 192 183 176
240 252 235 265 241 197 223 81 66 60 112 151 154 127 295 352 324 329 318 344 314 26 337 33 51 303 19 327 332 355 125 84 51 330 341 357 345 336 325 318 312 309 309 301 291 270 260 168 183 225 261 272 272 263 259 253 249 248 247 243 242 246 249 252 253 253 251 255 260 257 248 240 226 222 222 225 226 231 238 244 250 253 258 263 265 264 259 253 249 243 236 231 207 193 188 178 180
264 245 272 288 319 248 271 123 192 57 50 83 38 28 13 351 333 299 314 311 354 309 41 17 286 275 307 307 314 117 62 82 10 30 23 360 344 331 323 320 313 311 305 303 294 287 283 105 185 211 237 256 270 270 260 256 256 254 251 245 242 245 251 254 256 253 254 255 249 240 229 226 218 224 225 227 231 233 234 243 247 250 255 261 265 265 266 262 251 240 236 222 193 193 190 173 188
287 194 269 264 232 256 26 68 67 133 92 126 129 73 9 321 314 317 315 313 302 334 318 23 254 322 322 309 290 69 88 58 39 28 0 350 331 340 333 330 331 327 316 317 314 306 296 283 187 224 232 240 254 263 263 263 258 258 258 251 247 247 248 251 252 259 254 243 241 234 218 220 219 228 233 233 235 236 238 243 246 249 254 262 268 269 268 266 258 243 234 206 195 193 187 183 178
297 306 247 283 315 351 49 5 45 65 122 160 119 29 12 327 282 311 338 333 337 329 20 55 10 330 311 323 14 57 90 51 28 13 345 339 339 338 330 327 331 324 319 310 306 298 293 290 283 215 227 239 244 251 260 260 265 262 258 258 250 250 250 250 253 261 260 245 232 219 214 215 218 227 234 238 244 239 239 245 246 247 251 263 272 272 267 266 259 245 229 199 189 186 186 175 166
305 307 301 275 4 334 37 258 52 282 162 107 49 41 315 314 327 335 337 323 325 342 70 11 335 285 309 350 299 347 65 34 12 3 342 332 330 329 324 329 316 309 302 297 296 288 282 276 271 274 243 220 238 243 246 249 254 257 257 257 254 250 250 249 253 258 258 257 236 219 215 213 216 225 234 240 243 242 238 241 247 247 251 260 269 271 264 260 253 242 209 193 191 188 190 176 176
292 353 309 298 33 315 335 357 18 332 102 82 86 348 304 310 346 331 323 338 357 29 51 340 307 337 277 332 11 6 2 9 358 352 337 330 322 306 299 287 284 280 281 288 291 292 289 279 272 269 271 235 237 229 235 242 244 245 247 250 246 247 247 245 248 254 254 252 245 225 220 216 217 219 229 236 239 240 241 242 243 248 254 260 265 267 262 253 254 243 183 186 189 195 193 179 182
310 348 284 284 294 249 57 322 7 309 87 358 97 348 321 297 305 331 324 345 18 23 333 234 326 293 20 336 2 6 356 359 359 357 355 357 353 336 301 268 288 268 262 270 276 281 293 292 288 276 266 263 263 258 247 226 226 234 237 239 241 242 242 242 239 246 243 235 239 229 219 217 218 221 223 233 244 248 247 246 251 251 252 258 265 263 259 251 239 232 188 186 191 191 191 186 184
319 304 273 266 179 297 81 320 52 268 58 13 132 161 304 343 158 325 5 351 303 300 315 88 235 8 353 2 0 6 358 355 9 1 4 5 3 8 6 8 1 358 358 318 312 315 306 303 294 290 280 273 266 264 262 263 220 222 230 237 243 245 244 242 237 241 238 227 227 225 220 219 220 225 223 233 238 243 245 243 244 245 249 254 258 260 254 247 233 222 201 189 193 184 181 174 170
286 266 248 247 165 213 73 320 323 317 334 4 151 26 345 328 78 284 351 286 288 31 202 111 27 321 5 12 12 9 7 17 16 14 17 16 11 12 13 8 5 8 357 358 350 348 341 323 313 303 294 285 277 271 266 263 268 218 224 230 238 245 249 242 242 240 234 223 218 217 220 220 229 227 216 225 221 224 230 230 239 248 246 244 250 255 246 243 227 205 204 194 190 185 182 174 172
261 236 284 250 45 94 54 24 327 325 297 324 346 356 346 325 345 359 321 216 214 255 53 53 85 42 22 24 36 29 32 30 24 24 25 21 16 16 16 13 10 9 5 357 356 350 344 338 327 316 310 299 289 278 272 261 258 256 252 245 228 232 235 238 237 240 230 234 209 219 219 225 229 237 241 218 219 220 216 218 220 230 235 239 246 247 236 234 214 194 193 185 183 182 180 169 163
276 295 267 48 46 65 2 39 329 310 303 329 327 339 14 330 331 4 344 360 2 51 38 22 3 1 10 27 34 32 27 31 27 29 28 25 20 18 18 13 13 6 4 356 356 353 350 341 337 328 318 313 303 289 274 276 271 261 259 253 256 238 234 226 232 228 237 234 231 219 221 227 231 234 240 240 231 218 220 183 206 214 225 242 252 250 239 231 220 205 200 187 179 163 150 160 146
101 312 294 86 47 74 64 74 314 294 305 311 325 331 321 341 323 349 334 322 48 48 23 4 3 354 359 25 35 30 31 30 30 29 29 26 23 19 18 16 13 13 8 4 359 359 356 349 344 334 328 320 310 298 294 283 276 272 261 259 255 254 245 237 228 229 230 236 239 231 227 231 232 235 124 138 137 171 142 171 200 210 217 252 260 250 235 237 226 213 207 183 171 156 163 144 154
64 255 347 90 42 193 119 329 297 295 302 309 313 321 309 77 328 332 354 311 61 48 33 9 355 356 17 36 34 30 31 31 30 30 30 27 25 22 18 16 12 9 7 2 3 5 0 356 349 341 331 319 314 307 295 288 287 280 273 263 259 262 257 243 238 233 227 230 234 227 222 217 234 234 201 192 197 203 196 197 194 208 223 233 182 243 233 223 218 220 203 155 154 155 150 151 145
303 295 73 75 75 138 74 354 306 300 303 292 300 310 339 329 261 1 7 27 48 39 14 8 9 28 40 41 38 39 35 33 31 30 29 26 22 18 14 12 9 8 2 5 2 1 360 355 350 347 338 331 317 308 303 300 296 284 276 272 265 259 263 258 247 242 235 227 227 232 229 218 225 215 218 212 213 220 206 206 203 212 223 230 187 238 211 172 143 92 23 166 150 151 151 150 154
302 135 84 64 54 339 70 277 288 290 299 310 314 341 311 319 337 46 23 53 60 39 24 26 42 48 49 49 45 42 38 35 31 29 25 25 19 17 10 8 5 4 2 2 358 358 354 356 354 349 351 340 328 314 303 298 292 287 282 274 271 266 257 260 255 248 242 234 226 225 228 226 221 210 216 206 213 219 210 208 201 209 214 223 217 187 152 162 145 89 90 2 158 137 134 130 128
255 302 92 108 30 28 143 313 280 284 302 308 316 301 291 302 37 20 76 54 45 59 47 52 60 56 50 51 46 43 39 34 32 28 26 24 19 17 11 6 3 2 2 1 358 357 353 353 353 352 350 348 342 330 317 305 295 293 287 283 273 271 270 261 257 254 250 240 231 220 224 229 222 215 216 211 205 214 209 203 205 196 206 219 213 97 158 145 142 138 97 83 35 129 129 118 102
234 234 60 105 302 132 214 260 274 297 305 308 298 292 290 31 19 183 72 38 60 71 66 67 66 61 54 49 45 41 37 34 28 25 24 20 16 14 14 10 5 2 2 0 359 358 352 349 350 352 351 350 344 337 323 314 304 291 290 286 279 276 269 265 259 255 254 249 240 238 242 226 226 225 220 213 208 215 207 196 198 203 205 211 214 143 180 148 147 137 140 146 118 61 93 114 117
232 328 323 301 254 159 189 182 185 32 325 317 308 310 65 54 213 101 70 49 86 83 82 79 73 66 59 50 43 40 37 32 27 24 18 15 14 13 13 8 3 4 359 356 357 357 354 349 350 351 348 349 343 335 336 325 314 302 294 288 287 282 271 265 263 258 253 254 250 233 237 241 231 225 221 211 211 206 196 193 202 205 207 197 211 153 184 158 155 152 145 147 135 122 88 103 115
314 303 300 277 248 142 175 157 140 143 27 331 315 314 331 153 221 125 90 52 101 94 87 79 74 68 61 55 45 38 36 32 29 19 18 15 14 11 6 6 3 357 356 358 357 354 351 350 351 348 347 348 341 340 334 327 322 310 297 289 285 281 278 271 266 259 253 248 256 246 234 223 226 227 223 207 212 200 192 189 202 202 191 161 203 169 185 160 164 163 163 158 160 145 141 147 129
307 307 291 247 182 145 134 136 154 170 38 330 317 306 291 164 225 97 54 57 103 92 82 76 71 65 57 52 48 38 34 31 27 23 19 16 11 4 3 3 360 356 354 354 354 350 349 350 352 348 346 345 342 340 336 331 326 320 311 298 286 281 283 278 271 265 256 251 244 255 258 249 226 228 227 209 208 197 196 203 196 199 188 169 198 173 152 168 165 164 160 163 153 147 148 151 147
297 305 295 79 135 143 179 148 171 203 1 322 305 292 212 194 122 81 27 40 99 89 81 72 67 64 57 51 48 42 34 31 28 26 19 13 8 5 2 4 358 355 352 350 349 349 349 349 350 345 348 343 344 339 339 331 327 322 318 309 298 292 285 278 272 268 264 259 247 236 230 251 258 233 232 217 200 198 194 200 189 191 172 166 188 175 159 168 156 154 150 165 148 138 139 131 140
250 231 260 259 141 132 156 143 159 173 17 311 322 336 348 132 132 94 129 101 101 90 85 79 75 68 55 48 48 42 39 31 30 27 18 14 8 4 2 1 0 357 350 351 349 350 348 345 348 342 346 344 342 338 338 332 330 323 315 309 305 296 282 275 272 271 267 262 256 247 236 247 248 253 260 222 207 205 193 203 193 180 169 170 181 159 155 162 156 145 162 161 160 149 150 142 142
236 108 275 121 292 132 171 62 159 213 352 276 344 319 304 323 3 180 10 116 107 96 91 84 78 68 59 51 41 44 39 36 30 24 20 15 9 4 359 359 359 358 353 353 353 350 348 346 346 341 343 342 340 341 336 334 330 327 321 316 310 306 298 287 280 273 268 264 255 241 242 237 235 241 240 242 208 209 196 199 190 182 178 178 170 167 164 170 160 160 153 156 155 152 151 155 153
205 215 193 36 33 63 112 61 61 355 0 4 343 297 315 314 344 351 105 113 109 103 99 92 79 68 59 44 40 35 34 28 22 23 16 12 11 2 359 358 356 357 355 351 350 350 348 348 345 341 340 338 339 338 335 332 331 328 326 318 312 311 305 297 286 276 267 266 262 249 230 227 235 240 240 238 221 205 196 189 189 177 174 173 180 157 157 155 160 158 164 162 158 155 153 158 157
188 64 320 329 333 317 274 114 85 51 354 1 14 290 303 300 337 89 108 114 110 112 108 95 82 67 54 47 35 28 21 17 14 14 10 6 5 1 357 355 355 353 351 350 350 348 346 347 344 343 341 336 335 335 333 332 329 327 324 323 323 319 311 309 300 278 268 262 258 257 238 223 218 234 247 243 244 219 201 194 190 176 174 170 173 164 160 165 168 159 166 164 168 154 157 156 156
305 2 322 315 305 320 305 133 72 55 26 317 283 246 268 305 343 119 114 117 120 112 111 99 83 76 59 40 29 23 17 11 10 6 2 359 355 353 353 352 351 348 348 348 347 347 343 342 341 340 339 337 333 331 331 330 329 324 321 322 323 321 317 310 307 302 287 274 266 259 248 237 229 231 233 234 246 235 212 194 183 179 171 165 174 172 167 162 164 171 162 167 172 155 157 161 161
305 321 313 300 301 280 276 285 117 316 13 293 274 265 291 312 352 121 120 116 114 115 106 100 90 68 55 35 22 18 10 7 4 356 353 351 351 349 347 346 346 345 347 346 343 344 341 339 338 337 337 336 334 329 327 328 326 322 320 319 319 318 318 313 310 305 295 281 273 263 255 241 234 227 233 230 233 249 233 193 183 169 163 166 177 174 170 164 166 172 163 158 164 170 167 165 160
287 299 291 286 282 283 289 301 85 52 321 287 294 304 304 308 320 138 124 115 109 115 109 98 88 76 41 22 21 12 1 359 357 345 350 347 347 345 345 342 343 340 340 340 339 342 341 338 336 333 335 333 330 327 326 327 327 326 325 323 315 315 316 316 311 301 298 298 285 271 260 254 237 222 229 220 215 226 228 216 185 164 172 180 179 181 166 164 170 169 168 160 160 162 166 161 153
292 271 273 282 284 284 278 219 104 70 332 281 303 301 303 303 305 144 129 122 115 120 114 93 87 74 47 22 14 7 353 350 348 343 349 345 344 337 341 341 339 337 338 337 332 336 338 337 333 332 331 330 328 325 322 324 326 324 321 320 316 312 312 313 308 305 305 303 299 292 277 257 245 237 229 219 213 230 218 211 197 172 174 184 183 186 167 172 170 173 168 164 160 159 161 160 157
277 289 285 291 295 290 349 305 108 13 3 292 293 308 306 299 306 144 138 130 121 117 108 88 73 45 33 15 1 355 351 340 345 348 346 347 348 343 344 342 341 339 339 334 332 332 330 328 327 326 324 323 322 320 316 311 315 317 316 315 314 308 310 310 313 311 308 301 295 292 284 270 256 248 238 222 214 222 224 219 213 187 178 181 189 181 174 174 172 166 158 157 167 163 159 161 156
287 284 296 294 302 352 308 131 105 338 307 297 322 309 305 305 139 153 148 125 110 93 89 72 50 42 30 7 1 355 352 353 350 347 345 347 349 347 344 338 334 335 330 328 328 327 325 323 322 321 318 314 312 312 312 310 307 307 310 307 306 307 300 299 300 305 305 305 305 301 293 283 267 252 240 225 216 216 210 209 219 198 182 183 183 183 176 168 156 154 162 156 158 162 153 162 163
267 282 286 297 332 357 308 241 350 324 299 308 321 298 303 121 136 139 136 131 118 121 105 93 58 44 21 10 10 359 357 351 345 345 345 346 343 342 339 337 336 333 329 325 327 323 320 317 318 315 313 310 303 302 303 304 304 298 296 299 301 302 302 296 293 299 312 319 318 314 307 304 286 265 252 225 211 212 211 206 207 200 186 189 185 174 176 170 157 157 165 162 157 150 166 173 178
301 262 279 295 335 328 310 308 314 304 58 51 332 305 290 150 159 164 150 131 151 138 122 118 111 63 30 18 14 360 353 347 339 343 346 342 343 340 336 333 332 328 325 326 326 324 319 314 313 312 310 306 302 299 299 302 301 300 300 298 300 303 302 299 303 310 320 316 314 312 313 311 304 293 267 237 213 217 212 208 200 201 191 190 187 180 182 175 171 165 162 160 168 165 164 166 186
304 99 23 10 327 312 312 315 327 323 315 100 20 327 302 175 188 174 151 170 169 148 158 116 71 41 24 14 359 354 346 344 343 346 348 345 339 334 331 331 332 327 327 326 323 319 318 315 312 308 305 303 300 300 300 298 298 299 300 300 301 307 307 311 314 319 322 318 313 308 306 308 305 295 286 269 225 212 218 209 207 191 191 186 196 185 183 176 174 172 172 166 171 173 163 166 175
294 31 336 359 312 307 311 324 332 309 314 316 4 285 287 262 252 157 174 178 161 168 152 106 55 29 22 5 349 352 347 346 350 352 348 340 335 330 327 329 329 328 326 325 322 319 316 313 310 308 306 302 299 297 298 296 296 297 295 294 295 296 296 294 298 294 295 299 300 303 304 310 309 304 297 279 243 222 213 204 197 200 194 186 182 182 183 180 179 175 171 170 174 168 163 166 175
283 61 312 337 311 310 314 308 294 286 296 295 273 241 265 286 280 153 169 175 176 176 111 75 47 14 8 355 352 353 354 351 350 350 340 335 331 328 326 326 326 325 323 321 318 317 316 314 310 306 303 300 298 297 295 295 295 294 294 293 291 288 288 290 297 289 281 286 293 298 306 301 303 307 307 297 266 227 209 205 196 193 196 189 183 185 176 184 181 177 176 172 166 173 176 174 174
331 360 359 301 297 290 284 287 295 295 306 290 275 218 250 256 229 151 170 191 184 173 101 51 22 9 358 357 355 350 351 352 347 341 334 330 329 327 323 322 322 322 323 320 317 314 312 309 306 305 303 301 300 294 287 291 290 290 290 291 288 285 285 285 290 289 278 282 293 303 303 301 296 301 307 308 292 250 217 204 200 195 189 193 193 188 185 179 179 178 170 174 180 181 183 177 172
78 332 271 252 248 254 255 275 292 298 302 275 260 210 239 266 251 190 187 234 234 253 18 16 12 1 358 355 348 350 352 344 340 333 328 325 325 323 322 321 321 321 317 312 313 317 316 309 302 302 303 302 300 302 298 292 290 290 288 287 286 286 285 285 286 288 285 284 289 298 301 305 307 305 316 315 311 283 237 210 200 197 191 190 192 192 186 182 178 174 168 178 180 176 185 181 179
297 273 280 271 257 270 271 271 286 303 261 263 233 205 226 281 265 259 234 183 154 359 339 358 357 358 354 352 352 350 344 337 333 328 324 323 322 322 323 321 319 316 311 311 307 301 301 306 307 304 303 305 303 302 302 298 293 287 286 285 286 285 282 279 283 283 288 286 286 297 303 307 307 307 312 315 309 304 255 221 212 204 195 190 190 190 188 184 179 179 173 175 179 180 180 186 180
283 290 300 306 287 272 272 249 253 252 274 86 114 146 216 242 247 149 128 105 90 20 351 341 352 349 350 352 351 343 336 333 330 326 322 321 320 320 322 321 320 318 317 316 317 319 313 309 307 306 306 306 305 303 300 296 294 289 284 284 283 283 281 278 275 280 283 284 289 291 296 302 306 306 307 307 305 312 296 234 209 206 199 187 189 189 186 183 179 181 178 174 176 181 179 179 177
249 268 278 336 305 323 291 154 241 216 256 111 102 88 284 239 242 81 138 138 131 67 21 6 354 348 352 351 341 334 332 331 329 325 322 321 321 322 322 319 316 319 320 316 314 313 314 312 309 309 307 308 303 304 301 296 293 289 286 285 284 282 283 279 274 275 278 275 277 283 290 291 303 305 308 308 306 314 313 279 221 202 195 190 187 186 183 182 182 179 181 174 174 178 180 178 177
234 237 305 322 302 305 282 281 273 270 252 131 181 20 276 277 267 253 177 140 100 64 28 16 358 354 348 341 333 330 331 330 329 325 322 321 320 320 320 320 322 318 319 323 322 318 320 313 311 310 308 308 310 309 303 300 297 290 285 283 283 284 280 276 274 271 275 275 269 268 263 277 284 289 299 296 300 306 302 296 259 215 195 194 185 185 183 183 179 180 179 177 180 182 179 180 178
201 39 268 257 259 270 287 315 303 299 284 292 297 338 247 325 25 100 121 132 115 53 8 7 357 347 341 333 326 328 329 329 327 323 321 320 321 323 322 321 322 320 320 319 317 314 315 312 311 308 313 322 319 315 314 311 307 303 298 288 286 284 279 277 273 269 271 274 269 264 248 238 259 277 282 290 297 294 291 294 282 236 202 192 185 186 180 180 181 180 183 185 182 180 178 178 181
138 325 55 220 237 239 257 310 307 306 308 307 189 208 190 289 91 109 137 131 181 44 356 351 349 339 337 330 329 329 328 327 325 321 320 320 322 322 321 323 324 321 318 315 313 315 314 316 319 323 326 326 320 312 307 306 303 297 297 300 291 282 278 276 271 266 267 269 272 263 259 241 232 258 270 281 286 288 292 297 296 262 220 197 187 186 184 179 180 181 183 184 183 180 177 177 178
131 153 209 81 32 317 284 294 265 9 276 258 194 260 257 246 174 141 159 159 219 333 345 348 338 335 331 329 330 327 327 325 323 321 320 321 319 316 316 317 310 307 307 311 314 316 320 330 329 320 320 321 314 309 309 307 300 292 287 283 290 286 281 277 274 271 268 271 270 264 257 252 224 240 262 275 287 289 292 295 295 281 236 205 189 190 184 179 179 181 182 183 182 177 177 178 175
116 231 157 114 96 87 241 277 303 275 267 270 205 247 277 275 285 142 176 147 288 332 344 341 332 333 331 330 327 328 326 324 321 318 319 321 320 321 323 321 320 321 322 323 322 330 335 325 299 306 308 290 301 313 314 312 305 297 288 285 283 287 282 279 276 273 272 269 267 267 255 248 225 225 255 277 284 289 292 292 292 286 257 219 190 187 185 182 181 184 184 185 181 173 177 178 176
285 26 27 224 249 292 176 111 263 275 263 291 277 281 261 246 256 146 211 270 332 334 336 332 332 334 334 331 329 327 327 325 324 325 325 322 322 323 324 324 324 323 325 324 324 321 316 315 315 322 316 316 317 319 313 306 310 316 308 284 280 286 283 278 277 275 273 269 268 267 257 251 246 218 252 267 279 289 290 290 290 289 267 229 197 187 188 184 181 185 184 182 180 172 175 179 180
97 108 236 72 224 236 220 216 272 272 274 310 275 324 280 218 268 133 195 335 332 330 330 332 331 333 333 332 328 329 328 327 324 325 325 325 327 328 328 327 325 323 322 327 327 320 315 323 319 315 320 309 307 303 308 303 305 312 310 315 316 310 301 288 278 276 273 270 268 267 259 252 246 238 231 256 272 282 285 289 292 291 283 237 204 189 187 186 183 187 183 182 180 175 175 179 178
181 193 222 152 207 162 305 287 179 230 270 264 292 293 281 89 95 130 308 325 337 333 330 330 329 329 332 330 329 328 328 327 326 326 324 323 323 324 322 321 323 326 324 318 317 320 314 306 310 316 315 319 314 311 309 308 315 307 308 313 315 315 309 306 299 283 276 271 269 266 262 252 252 243 214 242 264 275 281 285 287 289 287 265 218 191 186 186 184 184 182 182 181 177 176 179 175
200 193 213 195 197 198 208 256 142 113 224 253 259 267 273 164 156 325 325 330 320 329 330 326 327 329 330 329 327 328 326 324 324 324 323 322 322 323 323 323 321 320 323 328 324 309 321 324 326 327 312 313 308 306 317 318 306 304 303 306 308 310 304 303 307 302 285 274 267 264 260 252 246 240 211 227 256 272 278 282 285 287 287 273 234 200 186 184 183 183 182 182 180 179 179 178 177